Location: Banff
(51.1667°N, 115.5667°W)
Time: 14:31:43
(UTC+00:00)

Tiros 1 - Pass Details

Date: 01 August 2021
Orbit: 630 x 663 km, 48.4° (Epoch: 23 September)

Event Time Altitude Azimuth Distance (km) Brightness Sun altitude
Rises 05:09:22 0° 269° (W) 2,974 11.1 -12.6°
Reaches altitude 10° 05:11:45 10° 266° (W) 2,057 10.2 -12.8°
Maximum altitude 05:16:25 61° 187° (S) 737 7.2 -13.3°
Enters shadow 05:20:03 16° 110° (ESE) 1,664 8.8 -13.6°
